Location: Unspecified
(54.1780°N, 0.0000°E)
Time: 04:17:10
(UTC+00:00)

Explorer 7 - Pass Details

Date: 18 August 2020
Orbit: 484 x 679 km, 50.3° (Epoch: 26 September)

Event Time Altitude Azimuth Distance (km) Brightness Sun altitude
Rises 20:57:50 0° 274° (W) 2,662 11.2 -12.4°
Reaches altitude 10° 21:00:14 10° 264° (W) 1,742 10.0 -12.6°
Maximum altitude 21:03:46 33° 200° (SSW) 863 7.6 -13.0°
Enters shadow 21:05:32 22° 153° (SSE) 1,135 7.8 -13.2°
